PHSVP EHRD-EHRD

Flight info

Callsign PHSVP
Flight time 0h 1m
Altitude 2000
Route LOCAL VFR
Aircraft PA28/L-S/L

Departure

Time 2026-05-06 13:42
Airport Rotterdam The Hague Airport (EHRD)

Arrival

Time 2026-05-06 13:44
Airport Rotterdam The Hague Airport (EHRD)
Time Latitude Longitude Altitude Speed Heading
2026-05-06 13:34 51.94918 4.42641 -5 ft 0 kts 232°
2026-05-06 13:40 51.94930 4.42649 -5 ft 11 kts 53°
2026-05-06 13:40 51.94995 4.42747 -5 ft 15 kts 56°
2026-05-06 13:40 51.95048 4.42885 -5 ft 15 kts 57°
2026-05-06 13:40 51.95109 4.43034 -5 ft 19 kts 52°
2026-05-06 13:41 51.95186 4.43099 -4 ft 17 kts 343°
2026-05-06 13:41 51.95309 4.43113 -4 ft 15 kts 18°
2026-05-06 13:41 51.95433 4.43387 -2 ft 58 kts 57°
2026-05-06 13:41 51.95712 4.44042 160 ft 82 kts 56°
2026-05-06 13:42 51.96087 4.44848 346 ft 101 kts 28°
2026-05-06 13:42 51.96702 4.44284 337 ft 135 kts 283°
2026-05-06 13:42 51.96375 4.43001 628 ft 125 kts 232°
2026-05-06 13:42 51.95829 4.41873 560 ft 130 kts 231°
2026-05-06 13:43 51.95203 4.40927 494 ft 116 kts 190°
2026-05-06 13:43 51.94814 4.41658 356 ft 97 kts 74°
2026-05-06 13:43 51.95125 4.42610 106 ft 92 kts 56°
2026-05-06 13:43 51.95429 4.43374 -6 ft 64 kts 57°
2026-05-06 13:44 51.95539 4.43697 -6 ft 9 kts 188°
2026-05-06 13:44 51.95447 4.43572 -6 ft 28 kts 218°
2026-05-06 13:44 51.95250 4.43397 -5 ft 30 kts 213°
2026-05-06 13:44 51.95133 4.43113 -4 ft 32 kts 241°